Location: Unspecified
(0.0000°N, 0.0000°E)
Time: 22:50:37
(UTC+00:00)

BlueWalker 3 - Pass Details

Date: 14 February 2024
Orbit: 486 x 500 km, 53.2° (Epoch: 20 February)

Event Time Altitude Azimuth Distance (km) Brightness Sun altitude
Exits shadow 04:12:27 10° 46° (NE) 1,678 4.9 -29.5°
Reaches altitude 10° 04:12:31 10° 47° (NE) 1,674 4.9 -29.5°
Maximum altitude 04:13:05 10° 55° (NE) 1,659 5.0 -29.4°
Drops below altitude 10° 04:13:38 10° 64° (ENE) 1,677 5.1 -29.3°
Sets 04:17:46 0° 108° (ESE) 2,568 6.8 -28.3°
